Location: Rounton
(54.4000°N, 1.3500°W)
Time: 13:46:34
(UTC+00:00)

Transit 4A - Pass Details

Date: 03 December 2021
Orbit: 864 x 981 km, 66.8° (Epoch: 18 January)

Event Time Altitude Azimuth Distance (km) Brightness Sun altitude
Rises 01:10:48 0° 305° (NW) 3,554 - -54.7°
Reaches altitude 10° 01:13:38 10° 317° (NW) 2,631 - -54.5°
Maximum altitude 01:18:58 30° 17° (NNE) 1,638 - -54.1°
Drops below altitude 10° 01:24:24 10° 77° (ENE) 2,695 - -53.6°
Sets 01:27:21 0° 88° (E) 3,655 - -53.3°
